LOGSATS

导读

LOGSATS是由泰国(TH)于2025年1月14日发射的卫星,作为泰国航天领域的新成果,该卫星进入预定轨道后稳定运行。作为低轨卫星,LOGSATS将依托空间技术优势,服务于地理观测、资源监测等领域,助力泰国提升空间技术研发能力,完善航天基础设施建设,推动相关领域人才培养与产业发展,是泰国航天事业持续进步的体现。

基本信息
目录编号:
62689
目录名称:
LOGSATS
国际标识:
2025-009CJ
轨道中心:
EARTH
卫星名称:
LOGSATS
卫星全名:
LOGSATS
卫星状态:
已陨落 最后检测时间 2026-04-09
发射日期:
2025-01-14 UTC
国别 :
(TH)
星等 :
--
轨道信息
数据来源 国际轨道数据
星历时间: 2026-04-09T01:55:08+0800
轨道信息已过期149天
半长轴: 6560.635km
偏心率: 0.0013653
轨道倾角: 97.360°
近地点辐角 275.450°
升交点赤经 191.320°
平近点角 84.524°
近地点: 173.54km
远地点: 191.456km
周期: 88.141分钟
每日圈数: 16.33744
详细信息
使用方式:
暂无